[[{"header":{"parameterUnit":"m.s-1","parameterCategory":1,"la1":30.2991,"la2":30.254,"lo1":-89.0895,"lo2":-89.0444,"dy":0.0017,"dx":0.0017,"nx":28,"ny":28,"refTime":"2024-08-09T03:00:00:Z","depth":0,"parameterNumber":2,"parameterNumberName":"U-component_of_WINDS"},"data":[0,0,0,0,0,0,0,0,0,0,0,0,0,0,0,0,0,0,0,0,0,0,0,0,0,0,0,0,0,0,0,0,0,0,0,0,0,0,0,0,0,0,0,0,0,0,0,0,0,0,0,0,0,0,0,0,0,0,-0.5202,-0.5201,0,-0.5096,-0.5094,-0.5093,-0.4947,-0.4944,-0.4942,-0.4939,-0.4831,-0.483,-0.483,0,0,0,0,0,0,0,0,0,0,0,0,0,-0.5281,-0.528,-0.5203,-0.5201,-0.52,-0.5096,-0.5094,-0.5093,-0.4947,-0.4944,-0.4941,-0.4938,-0.4831,-0.483,-0.483,0,0,0,0,0,0,0,0,0,0,0,0,0,-0.5218,-0.528,-0.5203,-0.5115,-0.5106,-0.5096,-0.5094,-0.5092,-0.4948,-0.4944,-0.494,-0.4937,-0.4831,-0.483,-0.483,-0.4898,0,0,-0.4827,-0.4826,0,0,0,0,0,0,0,0,-0.5221,-0.5215,-0.5129,-0.5121,-0.5111,-0.5031,-0.5082,-0.5027,-0.4949,-0.5008,-0.4939,-0.4935,-0.49,-0.4894,-0.4882,-0.4893,-0.4888,-0.4827,-0.4826,-0.4826,-0.4826,0,0,0,0,0,0,0,-0.5226,-0.5219,-0.516,-0.5128,-0.5117,-0.508,-0.5067,-0.5071,-0.4976,-0.5002,-0.4991,-0.4981,-0.4895,-0.4883,-0.4878,-0.4887,-0.4827,-0.4826,-0.4825,-0.4825,-0.4949,-0.4952,0,0,0,0,0,0,-0.5243,-0.5223,-0.5163,-0.5157,-0.5158,-0.5082,-0.5067,-0.506,-0.4976,-0.4959,-0.4984,-0.4974,-0.4886,-0.4879,-0.4874,-0.4948,-0.4826,-0.4825,-0.4825,-0.4945,-0.495,-0.4954,0,0,0,0,0,0,-0.5246,-0.5239,-0.5168,-0.5187,-0.5175,-0.5085,-0.5078,-0.506,-0.5048,-0.4962,-0.4944,-0.4989,-0.4883,-0.4875,-0.4893,-0.4942,-0.4825,-0.4824,-0.494,-0.4946,-0.4952,-0.5099,0,0,0,0,0,0,-0.5249,-0.5241,-0.5266,-0.5189,-0.5175,-0.5189,-0.5081,-0.5061,-0.5047,-0.5033,-0.4962,-0.4947,-0.488,-0.4895,-0.4892,-0.4939,-0.4823,-0.4936,-0.4943,-0.495,-0.5089,-0.5109,-0.5125,0,0,0,0,0,-0.5252,-0.5312,-0.5268,-0.5262,-0.5204,-0.5192,-0.5184,-0.5105,-0.5051,-0.5076,-0.502,-0.4949,-0.4938,-0.4898,-0.4894,-0.4941,-0.4932,-0.4941,-0.4949,-0.5081,-0.5105,-0.5125,0,0,0,0,0,0,-0.5398,-0.53,-0.5251,-0.5287,-0.525,-0.5168,-0.5196,-0.5133,-0.511,-0.5098,-0.5001,-0.4987,-0.5017,-0.498,-0.4938,-0.5003,-0.4924,-0.4932,-0.5026,-0.5048,-0.5066,-0.5074,-0.4822,0,0,0,0,0,-0.5434,-0.5433,-0.5347,-0.5388,-0.5372,-0.5288,-0.528,-0.5222,-0.5179,-0.5162,-0.5108,-0.5069,-0.5056,-0.505,-0.5033,-0.5083,-0.5065,-0.5113,-0.5132,-0.5147,-0.5155,-0.5179,-0.5199,-0.4982,-0.4982,-0.4982,0,0,-0.551,-0.5456,-0.5461,-0.5416,-0.538,-0.5381,-0.5275,-0.528,-0.528,-0.5163,-0.5176,-0.5136,-0.5085,-0.512,-0.5132,-0.509,-0.5211,-0.5158,-0.5171,-0.517,-0.519,-0.521,-0.5229,-0.4988,-0.4987,-0.4986,0,0,-0.5647,-0.5607,-0.5636,-0.5602,-0.5548,-0.5492,-0.5499,-0.5427,-0.5395,-0.5408,-0.532,-0.5318,-0.5298,-0.5266,-0.5247,-0.5373,-0.5307,-0.5371,-0.5466,-0.549,-0.5507,-0.5522,-0.5567,-0.5584,-0.5379,-0.5379,-0.538,0,-0.5748,-0.5745,-0.5659,-0.567,-0.5653,-0.5547,-0.5576,-0.5547,-0.5491,-0.5482,-0.5436,-0.5409,-0.5368,-0.5393,-0.5424,-0.5412,-0.5417,-0.5378,-0.5512,-0.5526,-0.5538,-0.558,-0.5597,-0.5387,-0.5386,-0.5386,-0.5385,0,-0.5871,-0.5871,-0.5901,-0.585,-0.5836,-0.5856,-0.5774,-0.577,-0.5714,-0.5663,-0.5677,-0.5624,-0.5595,-0.5596,-0.5541,-0.5614,-0.559,-0.553,-0.5448,-0.5568,-0.5606,-0.5621,-0.5399,-0.5396,-0.5394,-0.5392,0,0,-0.6098,-0.5999,-0.6011,-0.5987,-0.592,-0.5918,-0.5933,-0.5904,-0.5904,-0.5869,-0.5879,-0.5865,-0.5809,-0.5788,-0.5728,-0.5749,-0.5853,-0.5686,-0.5683,-0.5719,-0.5929,-0.5976,-0.5996,-0.5808,-0.5811,-0.5813,-0.5934,0,-0.6223,-0.6243,-0.6167,-0.6207,-0.6205,-0.6105,-0.6118,-0.6079,-0.6031,-0.6023,-0.5971,-0.5962,-0.5888,-0.5875,-0.5891,-0.5837,-0.5894,-0.5827,-0.5817,-0.5818,-0.5833,-0.6015,-0.6064,-0.618,-0.5948,-0.595,-0.5952,0,-0.6371,-0.6344,-0.6385,-0.6315,-0.6312,-0.6325,-0.6293,-0.6286,-0.624,-0.6204,-0.6181,-0.6112,-0.6122,-0.6045,-0.6058,-0.6014,-0.6006,-0.5978,-0.5981,-0.5977,-0.5893,-0.6017,-0.6215,-0.6233,-0.5974,-0.5973,-0.5971,0,-0.6533,-0.6506,-0.6527,-0.6509,-0.6428,-0.644,-0.6408,-0.6357,-0.6345,-0.6317,-0.6308,-0.6282,-0.6268,-0.6249,-0.6175,-0.6126,-0.6197,-0.6113,-0.6168,-0.617,-0.6187,-0.6187,-0.6388,-0.6182,-0.6182,-0.6182,-0.6181,0,-0.668,-0.6709,-0.6598,-0.6611,-0.664,-0.6552,-0.6583,-0.654,-0.6497,-0.6499,-0.641,-0.6415,-0.6317,-0.6311,-0.6253,-0.6273,-0.6267,-0.6239,-0.6223,-0.6247,-0.625,-0.624,-0.623,-0.6186,-0.6185,-0.6184,-0.6183,0,-0.6865,-0.6792,-0.6808,-0.6731,-0.6712,-0.6737,-0.6671,-0.668,-0.6627,-0.6632,-0.6628,-0.6545,-0.6533,-0.6458,-0.6429,-0.639,-0.6431,-0.6399,-0.6447,-0.6436,-0.6495,-0.6491,-0.6696,-0.6718,-0.6499,-0.6501,-0.6503,0,-0.6964,-0.6984,-0.6909,-0.6904,-0.6876,-0.6869,-0.6856,-0.677,-0.6761,-0.6709,-0.6724,-0.6705,-0.6685,-0.6671,-0.6609,-0.6586,-0.6553,-0.6627,-0.6549,-0.6572,-0.6554,-0.6554,-0.6556,-0.6643,-0.6646,-0.6649,-0.665,0,-0.7148,-0.7111,-0.7095,-0.7068,-0.7055,-0.7029,-0.6998,-0.6999,-0.6904,-0.6897,-0.6884,-0.6869,-0.6839,-0.6822,-0.6788,-0.6754,-0.6687,-0.6675,-0.6687,-0.6711,-0.6738,-0.6724,-0.6492,-0.6671,-0.6669,-0.6667,-0.6666,-0.6665,-0.7292,-0.7305,-0.7255,-0.7241,-0.7208,-0.7181,-0.7185,-0.7133,-0.712,-0.7089,-0.7039,-0.7034,-0.6986,-0.6934,-0.6906,-0.69,-0.6861,-0.6878,-0.6882,-0.6887,-0.69,-0.6739,-0.6894,-0.6893,-0.6892,-0.6892,-0.6891,0,-0.7471,-0.7434,-0.7422,-0.7381,-0.737,-0.7307,-0.7269,-0.7265,-0.726,-0.7222,-0.7204,-0.7189,-0.7172,-0.7108,-0.7084,-0.7092,-0.706,-0.7088,-0.7087,-0.708,-0.6936,-0.6929,-0.7114,-0.7114,-0.7114,-0.7114,-0.7114,-0.7114,-0.7563,-0.7582,-0.7539,-0.754,-0.7502,-0.7495,-0.7479,-0.7454,-0.7423,-0.741,-0.7395,-0.7353,-0.7305,-0.7276,-0.7258,-0.7239,-0.7235,-0.7273,-0.7245,-0.7112,-0.709,-0.707,-0.7062,-0.7273,-0.7273,-0.7389,-0.739,-0.7391]},{"header":{"parameterUnit":"m.s-1","parameterCategory":1,"la1":30.2991,"la2":30.254,"lo1":-89.0895,"lo2":-89.0444,"dy":0.0017,"dx":0.0017,"nx":28,"ny":28,"refTime":"2024-08-09T03:00:00:Z","depth":0,"parameterNumber":3,"parameterNumberName":"V-component_of_WINDS"},"data":[0,0,0,0,0,0,0,0,0,0,0,0,0,0,0,0,0,0,0,0,0,0,0,0,0,0,0,0,0,0,0,0,0,0,0,0,0,0,0,0,0,0,0,0,0,0,0,0,0,0,0,0,0,0,0,0,0,0,0.7541,0.7541,0,0.7565,0.7565,0.7565,0.7573,0.7573,0.7573,0.7572,0.7596,0.7597,0.7598,0,0,0,0,0,0,0,0,0,0,0,0,0,0.7501,0.7502,0.7541,0.7541,0.7541,0.7565,0.7565,0.7565,0.7573,0.7573,0.7573,0.7572,0.7596,0.7597,0.7598,0,0,0,0,0,0,0,0,0,0,0,0,0,0.7521,0.7502,0.7541,0.7548,0.7549,0.7564,0.7565,0.7565,0.7573,0.7573,0.7572,0.7572,0.7596,0.7597,0.7598,0.7608,0,0,0.7601,0.7602,0,0,0,0,0,0,0,0,0.752,0.7522,0.7547,0.7548,0.7549,0.7566,0.756,0.7579,0.7573,0.7564,0.7572,0.7572,0.7586,0.7588,0.7593,0.7609,0.761,0.7601,0.7602,0.7602,0.7603,0,0,0,0,0,0,0,0.7518,0.7521,0.755,0.7547,0.7548,0.755,0.7552,0.7563,0.7575,0.7564,0.7565,0.7568,0.7587,0.7592,0.7593,0.761,0.7601,0.7602,0.7603,0.7603,0.7635,0.7635,0,0,0,0,0,0,0.7516,0.752,0.7549,0.7551,0.7533,0.7551,0.7554,0.756,0.7575,0.7578,0.7568,0.7568,0.759,0.7592,0.7594,0.7606,0.7602,0.7603,0.7604,0.7635,0.7635,0.7635,0,0,0,0,0,0,0.7515,0.7518,0.7548,0.7536,0.754,0.7551,0.7559,0.7561,0.7566,0.7578,0.758,0.7571,0.759,0.7593,0.7604,0.7607,0.7604,0.7605,0.7635,0.7635,0.7635,0.7631,0,0,0,0,0,0,0.7514,0.7518,0.7522,0.7536,0.754,0.7558,0.7559,0.7561,0.7568,0.7568,0.7581,0.7583,0.759,0.7603,0.7605,0.7609,0.7606,0.7634,0.7635,0.7635,0.7631,0.7631,0.7631,0,0,0,0,0,0.7512,0.752,0.7522,0.7526,0.7546,0.7559,0.7561,0.7569,0.7568,0.7572,0.758,0.7583,0.7607,0.7604,0.7607,0.7611,0.7634,0.7635,0.7635,0.7631,0.7631,0.7631,0,0,0,0,0,0,0.7507,0.7522,0.7525,0.7537,0.7546,0.756,0.7565,0.7569,0.7578,0.7578,0.7587,0.759,0.7601,0.7607,0.7603,0.7621,0.7621,0.7622,0.7616,0.7617,0.7617,0.7615,0.7607,0,0,0,0,0,0.7507,0.7516,0.7529,0.7539,0.7543,0.7553,0.7559,0.7564,0.7574,0.7578,0.7587,0.7596,0.7605,0.7611,0.7621,0.7632,0.7635,0.7636,0.7636,0.7637,0.7637,0.7643,0.7644,0.7637,0.7637,0.7637,0,0,0.7507,0.7517,0.7522,0.7538,0.7546,0.7555,0.7557,0.7566,0.7573,0.7579,0.7591,0.7597,0.7608,0.762,0.7625,0.7625,0.764,0.7637,0.7637,0.7638,0.7644,0.7644,0.7645,0.7637,0.7637,0.7637,0,0,0.7513,0.7521,0.753,0.7537,0.7549,0.7556,0.7558,0.7571,0.7575,0.7587,0.7592,0.76,0.7616,0.7623,0.7629,0.7637,0.764,0.764,0.7641,0.7646,0.7647,0.7647,0.765,0.7651,0.7641,0.7641,0.7641,0,0.7512,0.7526,0.7534,0.7543,0.7549,0.7556,0.7564,0.7571,0.7586,0.759,0.759,0.761,0.7618,0.7631,0.7633,0.7637,0.764,0.7638,0.7646,0.7647,0.7647,0.765,0.7651,0.764,0.764,0.764,0.764,0,0.7524,0.7533,0.7539,0.7552,0.7559,0.7568,0.7577,0.7584,0.7588,0.7594,0.7606,0.7615,0.7626,0.763,0.7634,0.7643,0.7643,0.7645,0.7644,0.7648,0.765,0.7651,0.764,0.764,0.764,0.764,0,0,0.7526,0.7544,0.7546,0.7552,0.7565,0.7572,0.7581,0.7592,0.7597,0.7607,0.7614,0.7627,0.7629,0.7636,0.7641,0.7646,0.7651,0.7647,0.7647,0.7647,0.7661,0.7659,0.766,0.7653,0.7653,0.7653,0.766,0,0.7533,0.7549,0.7557,0.757,0.7578,0.7584,0.7592,0.7601,0.7607,0.7615,0.7622,0.7631,0.7632,0.7636,0.7641,0.7649,0.7653,0.7649,0.7659,0.766,0.7656,0.7661,0.766,0.7666,0.7661,0.7661,0.7661,0,0.7543,0.7552,0.7566,0.7578,0.7582,0.7589,0.7599,0.7607,0.7617,0.7621,0.7628,0.7633,0.7642,0.7642,0.7654,0.7651,0.7656,0.766,0.766,0.7661,0.766,0.7662,0.7668,0.7668,0.7663,0.7662,0.7662,0,0.7543,0.7559,0.7569,0.7574,0.7588,0.7593,0.7599,0.7608,0.7614,0.7624,0.7627,0.7638,0.7643,0.7651,0.7658,0.7657,0.767,0.767,0.7673,0.7673,0.7675,0.7675,0.7681,0.7679,0.7679,0.7679,0.7679,0,0.755,0.7558,0.7569,0.7575,0.7584,0.7593,0.7601,0.7608,0.7616,0.7624,0.7629,0.7636,0.7645,0.7653,0.7659,0.7669,0.7671,0.7674,0.7676,0.7674,0.7673,0.7677,0.7677,0.7679,0.7679,0.7679,0.7679,0,0.7551,0.7559,0.757,0.7583,0.7586,0.7592,0.7602,0.7608,0.7615,0.7624,0.7627,0.7637,0.7646,0.7654,0.7667,0.7671,0.768,0.7682,0.7677,0.7678,0.768,0.768,0.7689,0.769,0.7687,0.7687,0.7687,0,0.7554,0.7561,0.7573,0.7579,0.7585,0.7593,0.7599,0.7607,0.7613,0.7625,0.7629,0.7639,0.7648,0.7663,0.7671,0.7681,0.7683,0.7685,0.7684,0.7682,0.7682,0.7682,0.7682,0.7685,0.7685,0.7685,0.7685,0,0.7559,0.7563,0.7572,0.7581,0.7589,0.7597,0.7605,0.7609,0.7619,0.7625,0.7635,0.7641,0.7654,0.7664,0.7674,0.768,0.7684,0.7685,0.7686,0.7684,0.7681,0.7682,0.7677,0.7685,0.7685,0.7685,0.7685,0.7685,0.7562,0.7567,0.7577,0.7586,0.7593,0.7601,0.7607,0.7614,0.7622,0.7633,0.7638,0.7647,0.7657,0.7671,0.7677,0.7685,0.7686,0.7688,0.7688,0.7688,0.7688,0.768,0.7687,0.7687,0.7687,0.7687,0.7687,0,0.7567,0.7573,0.7582,0.7593,0.76,0.7603,0.7612,0.7618,0.7627,0.7635,0.7643,0.7654,0.7664,0.7673,0.7682,0.7687,0.7689,0.7689,0.7689,0.769,0.7687,0.7685,0.7687,0.7687,0.7687,0.7687,0.7687,0.7687,0.757,0.758,0.7584,0.7597,0.7604,0.7613,0.7618,0.7625,0.7632,0.7644,0.7652,0.7658,0.7666,0.7677,0.7685,0.7688,0.7691,0.7691,0.7694,0.769,0.769,0.769,0.7688,0.7691,0.7691,0.7696,0.7696,0.7696]}]]